Weather Service Report


079 
ASUS43 KOAX 281810
RWRNE 

WEATHER ROUNDUP FOR NEBRASKA
NATIONAL WEATHER SERVICE OMAHA NE
100 PM CDT THU AUG 28 2014

NOTES: SATELLITE DATA IS BEING USED TO AUGMENT CLOUD COVER ABOVE
       12000 FEET.
       "FAIR" INDICATES FEW OR NO CLOUDS BELOW 12,000 FEET WITH NO
       SIGNIFICANT WEATHER AND/OR OBSTRUCTIONS TO VISIBILITY.

  * THESE STATIONS DO NOT REPORT WEATHER SUCH AS RAIN...SNOW OR FOG.
   
NEZ001>004-019>022-054>056-281900-
NEBRASKA PANHANDLE
  
CITY           SKY/WX    TMP DP  RH WIND       PRES   REMARKS
SCOTTSBLUFF    LGT RAIN  61  61 100 NW13      30.07F                  
6HR MIN TEMP:  58; 6HR MAX TEMP:  64; 6HR PCP:  0.07;                

ALLIANCE       TSTM      63  61  93 NW15      30.02  FOG              
6HR MIN TEMP:  62; 6HR MAX TEMP:  65; 6HR PCP:  0.43;                

CHADRON        LGT RAIN  68  62  81 NW7       30.03S                  
6HR MIN TEMP:  63; 6HR MAX TEMP:  68; 6HR PCP:  0.02;                

KIMBALL        CLOUDY    62  55  75 NW15G23   30.11R                  
SIDNEY         CLOUDY    69  56  62 NW17      30.07F                  
6HR MIN TEMP:  58; 6HR MAX TEMP:  70;                                

$$
 
NEZ057>060-069>072-079>082-281900-
SOUTHWEST NEBRASKA
  
CITY           SKY/WX    TMP DP  RH WIND       PRES   REMARKS
NORTH PLATTE   MOSUNNY   78  64  61 VRB3      29.93F                  
6HR MIN TEMP:  58; 6HR MAX TEMP:  78;                                

IMPERIAL       PTSUNNY   74  61  63 NW10      29.99F                  
6HR MIN TEMP:  59; 6HR MAX TEMP:  74;                                

LEXINGTON      MOSUNNY   76  67  73 W7        29.92F                  
MCCOOK         SUNNY     79  61  53 NW10      29.94F                  
6HR MIN TEMP:  61; 6HR MAX TEMP:  79; 6HR PCP:  0.01;                

OGALLALA       PTSUNNY   71  61  71 N8        29.98F                  
$$
 
NEZ005>010-023>029-035>040-094-281900-
NORTH CENTRAL NEBRASKA
  
CITY           SKY/WX    TMP DP  RH WIND       PRES   REMARKS
VALENTINE      CLOUDY    76  66  71 CALM      29.92F                  
6HR MIN TEMP:  67; 6HR MAX TEMP:  76;                                

AINSWORTH      PTSUNNY   74  65  73 CALM      29.91F                  
BROKEN BOW     MOSUNNY   79  65  62 CALM      29.91F                  
6HR MIN TEMP:  66; 6HR MAX TEMP:  79;                                

O'NEILL        CLOUDY    75  69  82 E6        29.90F                  
ORD            PTSUNNY   74  67  78 SE6       29.89F                  
6HR MIN TEMP:  67; 6HR MAX TEMP:  75; 6HR PCP:  0.01;                

THEDFORD       MOSUNNY   77  64  64 NW3       29.93F                  
$$
 
NEZ041-046>049-061>064-073>077-083>087-281900-
SOUTH CENTRAL NEBRASKA
  
CITY           SKY/WX    TMP DP  RH WIND       PRES   REMARKS
GRAND ISLAND   CLOUDY    73  68  84 SW7       29.93S                  
6HR MIN TEMP:  67; 6HR MAX TEMP:  74; 6HR PCP:  0.01;                

AURORA         CLOUDY    76  70  81 SW7       29.92S                  
HASTINGS       CLOUDY    72  65  78 W6        29.93S                  
6HR MIN TEMP:  67; 6HR MAX TEMP:  75;                                

HEBRON         PTSUNNY   79  66  64 S9G17     29.92F                  
HOLDREGE       PTSUNNY   74  65  73 S6        29.93S                  
KEARNEY *      CLOUDY    73  66  78 SE6       29.93S                  
YORK           PTSUNNY   79 N/A N/A SW10      29.91F                  
$$
 
NEZ011>018-030>034-042>045-281900-
NORTHEAST NEBRASKA
  
CITY           SKY/WX    TMP DP  RH WIND       PRES   REMARKS
NORFOLK        CLOUDY    76  69  79 S10       29.90F                  
6HR MIN TEMP:  68; 6HR MAX TEMP:  76; 6HR PCP: TRACE;                

ALBION         CLOUDY    73  70  88 S10       29.90F                  
BLAIR          CLOUDY    78  72  79 S8        29.92F                  
FREMONT        PTSUNNY   78  72  81 S7        29.92S                  
TEKAMAH        CLOUDY    76  72  87 S9        29.91F                  
6HR MIN TEMP:  70; 6HR MAX TEMP:  76; 6HR PCP:  0.01;                

WAYNE          CLOUDY    76  72  87 S13       29.90F                  
$$

NEZ050>053-065>068-078-088>093-281900-
SOUTHEAST NEBRASKA
  
CITY           SKY/WX    TMP DP  RH WIND       PRES   REMARKS
LINCOLN        CLOUDY    81  69  67 S12       29.91F                  
6HR MIN TEMP:  71; 6HR MAX TEMP:  82;                                

OMAHA EPPLEY   CLOUDY    78  68  71 S13       29.91F                  
6HR MIN TEMP:  70; 6HR MAX TEMP:  79; 6HR PCP:  0.33;                

BEATRICE       PTSUNNY   82  71  71 S16       29.92F                  
FALLS CITY     LGT RAIN  78  74  87 CALM      29.93S                  
6HR MIN TEMP:  73; 6HR MAX TEMP:  78; 6HR PCP:  0.06;                

NEBRASKA CITY  PTSUNNY   78  74  87 S15       29.92F                  
PLATTSMOUTH    PTSUNNY   78  71  78 S7        29.92S                  
$$

NEZ044-045-051>053-067-281900-
OMAHA AREA
  
CITY           SKY/WX    TMP DP  RH WIND       PRES   REMARKS
OMAHA EPPLEY   CLOUDY    78  68  71 S13       29.91F                  
6HR MIN TEMP:  70; 6HR MAX TEMP:  79; 6HR PCP:  0.33;                

BLAIR          CLOUDY    78  72  79 S8        29.92F                  
FREMONT        PTSUNNY   78  72  81 S7        29.92S                  
MILLARD        CLOUDY    80  72  77 SE8       29.91S                  
OFFUTT AFB     CLOUDY    78  74  87 SE7       29.91F                  
PLATTSMOUTH    PTSUNNY   78  71  78 S7        29.92S                  
WAHOO          CLOUDY    80  71  75 S6        29.91F                  
$$

Return to Home page


Western Regional Climate Center, wrcc@dri.edu